Погода в Кадисе

Испания     36°31′41″N   6°17′20″W
темп.,
°C
ветер,
м/с
пор.,
м/с
влажн.,
%
обл.,
%
осадки,
мм/ч
давл.,
гПа
погр.,
м
24 января, вс
вс2401:00+16зюз101484100 0.1 1019764
04:00+16зюз8138997 0.6 1019598
07:00+16з8129199 0.8 1019553
10:00+16з61092100 0.8 1020413
13:00+16з6789100 1.1 1021418
16:00+16з578796 0.1 1018519
19:00+15з339394 0.4 101994
22:00+16зюз5892100 0.8 1020215
25 января, пн
пн2501:00+15з5891100 0.9 1020263
04:00+15зюз589098 0.1 1019197
07:00+13вюв1190100 0.2 101968
10:00+13ююв339299 0.3 1021161
13:00+17зюз8128985 1.5 1020576
16:00+17з8129132 1.1 1020548
19:00+16з6108836 1.2 1021312
22:00+15з479138 0.0 1023196
26 января, вт
вт2601:00+15з449036 0.0 1024100
04:00+15зсз459212 0.0 1024129
07:00+14зсз129329 0.0 102441
10:00+15в019252 0.0 102733
13:00+16з238672 0.0 1027264
16:00+16з238217 0.0 1025289
19:00+15з119191 0.1 102627
22:00+15ююз119287 0.0 102723
27 января, ср
ср2701:00+15с229558 0.0 102732
04:00+14ссв349438 0.0 1026112
07:00+15с349478 0.0 1026102
10:00+15ссв47931 0.0 1026246
13:00+18с468174 0.0 1026244
16:00+19ссз467925 0.0 1025376
19:00+17ссз458457 0.0 102676
22:00+16с348669 0.0 102744
28 января, чт
чт2801:00+15ссв348963 0.0 102759
04:00+15св458996 0.0 102681
07:00+14св3488100 0.0 102581
10:00+16всв238480 0.0 102666
13:00+19ссв227540 0.0 1026195
16:00+20ссв127013 0.0 1025305
19:00+18ссв22786 0.0 102523
22:00+17всв33840 0.0 102623